Weather History for Rolla, ND

Change the Weather History Date:

Thursday, August 9, 2012

  Actual Average (KRUG) Record (KRUG)
Temperature  
Mean Temperature 62 °F -  
Max Temperature 73 °F 81 °F 99 °F (1958)
Min Temperature 50 °F 55 °F 44 °F (1968)
Degree Days  
Heating Degree Days 4    
Growing Degree Days 12 (Base 50)    
Moisture  
Dew Point 53 °F    
Average Humidity 76    
Maximum Humidity 100    
Minimum Humidity 41    
Precipitation  
Precipitation 0.00 in - - ()
Sea Level Pressure  
Sea Level Pressure 30.21 in    
Wind  
Wind Speed 7 mph (NE)    
Max Wind Speed 13 mph    
Max Gust Speed -    
Visibility 10 miles    
Events Fog    
Averages and records for this station are not official NWS values.
T = Trace of Precipitation, MM = Missing Value Source: NWS Daily Summary

Daily Weather History Graph

Daily Weather History Graph

Search for Another Location

Airport:

Trip Planner

Search our weather history database for the weather conditions in past years. The results will help you decide how hot, cold, wet, or windy it might be!

Date:

Astronomy

Aug. 09, 2012 Rise Set
Actual Time 6:23 AM CDT 9:03 PM CDT
Civil Twilight 5:47 AM CDT 9:39 PM CDT
Nautical Twilight 5:01 AM CDT 10:24 PM CDT
Astronomical Twilight 4:07 AM CDT 11:17 PM CDT
Moon No Moon Rise 2:53 PM CDT (8/9)
Length of Visible Light 15h 51m
Length of Day
14h 39m
Waning Gibbous, 51% of the Moon is Illuminated
Aug 9
Waning Gibbous
Aug 9
Last Quarter
Aug 17
New
Aug 24
First Quarter
Aug 31
Full

Hourly Weather History & Observations

Time (CDT) Temp. Dew Point Humidity Pressure Visibility Wind Dir Wind Speed Gust Speed Precip Events Conditions
12:15 AM 59.0 °F 59.0 °F 100% 30.16 in 10.0 mi North 8.1 mph - N/A   Clear
12:35 AM 57.2 °F 57.2 °F 100% 30.17 in 10.0 mi North 6.9 mph - N/A   Clear
12:55 AM 57.2 °F 57.2 °F 100% 30.17 in 10.0 mi NNW 6.9 mph - N/A   Partly Cloudy
1:15 AM 57.2 °F 57.2 °F 100% 30.17 in 10.0 mi North 6.9 mph - N/A   Partly Cloudy
1:35 AM 55.4 °F 55.4 °F 100% 30.18 in 10.0 mi North 8.1 mph - N/A   Partly Cloudy
1:55 AM 55.4 °F 55.4 °F 100% 30.19 in 10.0 mi NNW 6.9 mph - N/A   Clear
2:15 AM 55.4 °F 55.4 °F 100% 30.19 in 10.0 mi North 6.9 mph - N/A   Clear
2:35 AM 55.4 °F 55.4 °F 100% 30.18 in 10.0 mi NNW 5.8 mph - N/A   Clear
2:55 AM 53.6 °F 53.6 °F 100% 30.18 in 10.0 mi NNW 6.9 mph - N/A   Clear
3:15 AM 53.6 °F 53.6 °F 100% 30.19 in 10.0 mi NW 6.9 mph - N/A   Clear
3:35 AM 53.6 °F 53.6 °F 100% 30.19 in 10.0 mi NNW 6.9 mph - N/A   Clear
3:55 AM 51.8 °F 51.8 °F 100% 30.20 in 10.0 mi NNW 6.9 mph - N/A   Partly Cloudy
4:15 AM 53.6 °F 53.6 °F 100% 30.20 in 10.0 mi NNW 8.1 mph - N/A   Partly Cloudy
4:35 AM 51.8 °F 51.8 °F 100% 30.20 in 10.0 mi North 6.9 mph - N/A   Partly Cloudy
4:55 AM 51.8 °F 51.8 °F 100% 30.20 in 10.0 mi NNW 6.9 mph - N/A   Partly Cloudy
5:15 AM 51.8 °F 51.8 °F 100% 30.21 in 10.0 mi NW 6.9 mph - N/A   Clear
5:35 AM 51.8 °F 51.8 °F 100% 30.21 in 10.0 mi NW 6.9 mph - N/A   Clear
5:55 AM 53.6 °F 53.6 °F 100% 30.21 in 10.0 mi North 8.1 mph - N/A   Clear
6:15 AM 51.8 °F 51.8 °F 100% 30.20 in 10.0 mi North 8.1 mph - N/A   Clear
6:35 AM 50.0 °F 50.0 °F 100% 30.21 in 10.0 mi NNW 5.8 mph - N/A   Partly Cloudy
6:55 AM 50.0 °F 50.0 °F 100% 30.21 in 10.0 mi NNW 5.8 mph - N/A   Mostly Cloudy
7:15 AM 53.6 °F 53.6 °F 100% 30.22 in 0.2 mi North 6.9 mph - N/A Fog Fog
7:35 AM 53.6 °F 53.6 °F 100% 30.23 in 0.2 mi North 6.9 mph - N/A Fog Fog
7:55 AM 53.6 °F 53.6 °F 100% 30.23 in 0.2 mi North 4.6 mph - N/A Fog Fog
8:15 AM 53.6 °F 53.6 °F 100% 30.23 in 0.5 mi North 4.6 mph - N/A Fog Fog
8:35 AM 55.4 °F 55.4 °F 100% 30.23 in 10.0 mi NNE 4.6 mph - N/A   Scattered Clouds
8:55 AM 55.4 °F 55.4 °F 100% 30.23 in 10.0 mi NE 6.9 mph - N/A   Clear
9:15 AM 57.2 °F 57.2 °F 100% 30.24 in 10.0 mi ENE 6.9 mph - N/A   Clear
9:35 AM 57.2 °F 57.2 °F 100% 30.24 in 10.0 mi ENE 5.8 mph - N/A   Partly Cloudy
9:55 AM 59.0 °F 57.2 °F 94% 30.24 in 10.0 mi ENE 6.9 mph - N/A   Partly Cloudy
10:15 AM 62.6 °F 55.4 °F 77% 30.23 in 10.0 mi East 6.9 mph - N/A   Clear
10:35 AM 62.6 °F 53.6 °F 72% 30.24 in 10.0 mi ENE 6.9 mph - N/A   Clear
10:55 AM 62.6 °F 50.0 °F 63% 30.24 in 10.0 mi East 5.8 mph - N/A   Clear
11:15 AM 64.4 °F 50.0 °F 59% 30.24 in 10.0 mi ENE 3.5 mph - N/A   Clear
11:35 AM 64.4 °F 46.4 °F 52% 30.25 in 10.0 mi NE 5.8 mph - N/A   Clear
11:55 AM 66.2 °F 48.2 °F 52% 30.26 in 10.0 mi Calm Calm - N/A   Clear
12:15 PM 66.2 °F 48.2 °F 52% 30.25 in 10.0 mi ENE 3.5 mph - N/A   Clear
12:35 PM 68.0 °F 48.2 °F 49% 30.25 in 10.0 mi NE 6.9 mph - N/A   Clear
12:55 PM 68.0 °F 48.2 °F 49% 30.24 in 10.0 mi East 3.5 mph - N/A   Clear
1:15 PM 69.8 °F 48.2 °F 46% 30.23 in 10.0 mi ENE 5.8 mph - N/A   Clear
1:35 PM 71.6 °F 48.2 °F 43% 30.23 in 10.0 mi NNE 9.2 mph - N/A   Unknown
1:55 PM 71.6 °F 48.2 °F 43% 30.23 in 10.0 mi ENE 6.9 mph - N/A   Unknown
2:15 PM 71.6 °F 48.2 °F 43% 30.22 in 10.0 mi ENE 10.4 mph - N/A   Unknown
2:35 PM 73.4 °F 48.2 °F 41% 30.22 in 10.0 mi East 9.2 mph - N/A   Unknown
2:55 PM 73.4 °F 48.2 °F 41% 30.23 in 10.0 mi NE 6.9 mph - N/A   Unknown
3:15 PM 73.4 °F 48.2 °F 41% 30.23 in 10.0 mi East 10.4 mph - N/A   Unknown
3:35 PM 73.4 °F 48.2 °F 41% 30.22 in 10.0 mi ENE 6.9 mph - N/A   Unknown
3:55 PM 73.4 °F 48.2 °F 41% 30.22 in 10.0 mi ENE 6.9 mph - N/A   Unknown
4:15 PM 71.6 °F 48.2 °F 43% 30.22 in 10.0 mi ENE 9.2 mph - N/A   Clear
4:35 PM 71.6 °F 48.2 °F 43% 30.20 in 10.0 mi East 9.2 mph - N/A   Clear
4:55 PM 71.6 °F 50.0 °F 46% 30.20 in 10.0 mi East 10.4 mph - N/A   Clear
5:15 PM 71.6 °F 48.2 °F 43% 30.19 in 10.0 mi East 10.4 mph - N/A   Clear
5:35 PM 71.6 °F 48.2 °F 43% 30.19 in 10.0 mi ESE 9.2 mph - N/A   Clear
5:55 PM 71.6 °F 50.0 °F 46% 30.19 in 10.0 mi East 11.5 mph - N/A   Clear
6:15 PM 71.6 °F 50.0 °F 46% 30.19 in 10.0 mi East 12.7 mph - N/A   Clear
6:35 PM 69.8 °F 50.0 °F 49% 30.21 in 10.0 mi East 6.9 mph - N/A   Clear
6:55 PM 68.0 °F 50.0 °F 52% 30.21 in 10.0 mi ESE 5.8 mph - N/A   Clear
7:15 PM 68.0 °F 51.8 °F 56% 30.20 in 10.0 mi SE 5.8 mph - N/A   Clear
7:35 PM 68.0 °F 53.6 °F 60% 30.19 in 10.0 mi ESE 6.9 mph - N/A   Clear
7:55 PM 66.2 °F 55.4 °F 68% 30.19 in 10.0 mi ESE 10.4 mph - N/A   Clear
8:15 PM 66.2 °F 55.4 °F 68% 30.20 in 10.0 mi ESE 11.5 mph - N/A   Clear
8:35 PM 66.2 °F 55.4 °F 68% 30.19 in 10.0 mi SE 9.2 mph - N/A   Clear
8:55 PM 64.4 °F 55.4 °F 73% 30.17 in 10.0 mi SE 9.2 mph - N/A   Clear
9:15 PM 62.6 °F 55.4 °F 77% 30.18 in 10.0 mi SE 8.1 mph - N/A   Clear
9:35 PM 62.6 °F 55.4 °F 77% 30.19 in 10.0 mi South 8.1 mph - N/A   Clear
9:55 PM 60.8 °F 57.2 °F 88% 30.20 in 10.0 mi South 5.8 mph - N/A   Clear
10:35 PM 59.0 °F 55.4 °F 88% 30.21 in 10.0 mi South 5.8 mph - N/A   Clear
10:55 PM 59.0 °F 57.2 °F 94% 30.21 in 10.0 mi SSE 6.9 mph - N/A   Clear
11:15 PM 57.2 °F 57.2 °F 100% 30.20 in 10.0 mi SSE 6.9 mph - N/A   Clear
11:35 PM 57.2 °F 57.2 °F 100% 30.21 in 10.0 mi South 5.8 mph - N/A   Clear
11:55 PM 55.4 °F 55.4 °F 100% 30.21 in 10.0 mi South 5.8 mph - N/A   Clear